Weather History for PAJN - August, 2013

Change the Weather History Date:

Friday, August 9, 2013

  Actual Average Record
Temperature  
Mean Temperature 58 °F 57 °F  
Max Temperature 67 °F 64 °F 83 °F (1957)
Min Temperature 49 °F 50 °F 40 °F (1963)
Degree Days  
Heating Degree Days 7 8  
Month to date heating degree days 41 70  
Since 1 June heating degree days 477 636  
Since 1 July heating degree days 263 321  
Cooling Degree Days 0 0  
Month to date cooling degree days 0 0  
Year to date cooling degree days 9 2  
Since 1 June cooling degree days 9 2  
Growing Degree Days 10 (Base 50)    
Moisture  
Dew Point 52 °F    
Average Humidity 78    
Maximum Humidity 100    
Minimum Humidity 56    
Precipitation  
Precipitation 0.00 in 0.16 in 0.99 in (2008)
Month to date precipitation 0.96 1.42  
Year to date precipitation 36.97 28.86  
Sea Level Pressure  
Sea Level Pressure 30.07 in    
Wind  
Wind Speed 3 mph (NW)    
Max Wind Speed 9 mph    
Max Gust Speed 11 mph    
Visibility 10 miles    
Events      
T = Trace of Precipitation, MM = Missing Value Source: NWS Daily Summary

Daily Weather History Graph

Daily Weather History Graph

Search for Another Location

Airport or City:

Trip Planner

Search our weather history database for the weather conditions in past years. The results will help you decide how hot, cold, wet, or windy it might be!

Date:

Astronomy

Aug. 09, 2013 Rise Set
Actual Time 5:07 AM AKDT 8:58 PM AKDT
Civil Twilight 4:17 AM AKDT 9:47 PM AKDT
Nautical Twilight 3:02 AM AKDT 11:01 PM AKDT
Astronomical Twilight 1:36 AM AKDT 12:31 AM AKDT
Moon 8:56 AM AKDT (8/9) 9:10 PM AKDT (8/9)
Length of Visible Light 17h 30m
Length of Day
15h 50m
Waxing Crescent, 8% of the Moon is Illuminated
Aug 9
Waxing Crescent
Aug 14
First Quarter
Aug 20
Full
Aug 28
Last Quarter
Sep 5
New

Hourly Weather History & Observations

Time (AKDT) Temp. Dew Point Humidity Pressure Visibility Wind Dir Wind Speed Gust Speed Precip Events Conditions
12:15 AM 55.9 °F 55.0 °F 97% 30.05 in 10.0 mi Calm Calm - N/A   Overcast
12:20 AM 55.9 °F 55.0 °F 97% 30.05 in 10.0 mi Calm Calm - N/A   Overcast
12:53 AM 57.0 °F 57.0 °F 100% 30.05 in 10.0 mi ENE 3.5 mph - N/A   Overcast
1:32 AM 57.0 °F 55.0 °F 93% 30.05 in 10.0 mi Calm Calm - N/A   Overcast
1:53 AM 55.0 °F 54.0 °F 96% 30.05 in 10.0 mi Calm Calm - N/A   Overcast
2:09 AM 55.9 °F 55.0 °F 97% 30.05 in 10.0 mi Calm Calm - N/A   Overcast
2:34 AM 55.0 °F 54.0 °F 96% 30.05 in 10.0 mi Calm Calm - N/A   Overcast
2:53 AM 54.0 °F 53.1 °F 97% 30.05 in 10.0 mi WNW 4.6 mph - N/A   Overcast
3:53 AM 55.0 °F 53.1 °F 93% 30.06 in 10.0 mi Calm Calm - N/A   Overcast
4:30 AM 55.0 °F 53.1 °F 93% 30.05 in 10.0 mi Calm Calm - N/A   Overcast
4:53 AM 55.0 °F 54.0 °F 96% 30.05 in 10.0 mi Calm Calm - N/A   Overcast
5:15 AM 55.0 °F 55.0 °F 100% 30.05 in 10.0 mi Calm Calm - N/A   Overcast
5:53 AM 55.0 °F 55.0 °F 100% 30.06 in 10.0 mi Variable 3.5 mph - N/A   Overcast
6:32 AM 55.0 °F 55.0 °F 100% 30.05 in 10.0 mi Calm Calm - N/A   Overcast
6:53 AM 55.0 °F 55.0 °F 100% 30.06 in 10.0 mi Calm Calm - N/A   Overcast
7:26 AM 55.9 °F 55.0 °F 97% 30.06 in 10.0 mi Calm Calm - N/A   Overcast
7:44 AM 55.9 °F 55.0 °F 97% 30.06 in 10.0 mi Calm Calm - N/A   Overcast
7:53 AM 55.9 °F 55.9 °F 100% 30.07 in 10.0 mi Calm Calm - N/A   Overcast
8:42 AM 57.0 °F 55.9 °F 96% 30.07 in 10.0 mi Calm Calm - N/A   Overcast
8:53 AM 57.9 °F 55.0 °F 90% 30.07 in 10.0 mi Calm Calm - N/A   Overcast
9:53 AM 62.1 °F 55.0 °F 78% 30.07 in 10.0 mi Calm Calm - N/A   Overcast
10:53 AM 63.0 °F 51.1 °F 65% 30.08 in 10.0 mi NW 4.6 mph - N/A   Overcast
11:53 AM 62.1 °F 51.1 °F 67% 30.09 in 10.0 mi NNW 5.8 mph - N/A   Overcast
12:53 PM 63.0 °F 48.9 °F 60% 30.09 in 10.0 mi NNW 4.6 mph - N/A   Overcast
1:53 PM 64.9 °F 48.9 °F 56% 30.10 in 10.0 mi Variable 3.5 mph - N/A   Overcast
2:53 PM 64.0 °F 48.0 °F 56% 30.10 in 10.0 mi WNW 6.9 mph - N/A   Overcast
3:53 PM 63.0 °F 48.0 °F 58% 30.10 in 10.0 mi WNW 6.9 mph - N/A   Overcast
4:53 PM 64.0 °F 48.9 °F 58% 30.09 in 10.0 mi WNW 4.6 mph - N/A   Overcast
5:53 PM 64.9 °F 48.9 °F 56% 30.09 in 10.0 mi NW 5.8 mph - N/A   Mostly Cloudy
6:53 PM 63.0 °F 48.0 °F 58% 30.09 in 10.0 mi NW 5.8 mph - N/A   Mostly Cloudy
7:53 PM 59.0 °F 48.9 °F 69% 30.09 in 10.0 mi WNW 4.6 mph - N/A   Mostly Cloudy
8:53 PM 57.0 °F 48.0 °F 72% 30.09 in 10.0 mi SW 3.5 mph - N/A   Mostly Cloudy
9:53 PM 54.0 °F 48.0 °F 80% 30.09 in 10.0 mi Calm Calm - N/A   Scattered Clouds
10:53 PM 53.1 °F 48.0 °F 83% 30.09 in 10.0 mi Calm Calm - N/A   Partly Cloudy
11:53 PM 51.1 °F 48.0 °F 89% 30.10 in 10.0 mi Calm Calm - N/A   Partly Cloudy